Home > Weather > Olpe > Past weeks

Flag for Germany Past Weather in Olpe, North Rhine-Westphalia, Germany — Yesterday and Last 2 Weeks

Now
45 °F

Fog.


Feels Like: 40 °F
Forecast: 39 / 63 °F
Wind: 8 mph from Northwest

Location: Hessen

Current Time: May 24, 2016 at 9:39:22 PM

Latest Report: May 24, 2016 at 8:50 PM


Visibility: 3 mi

Pressure: 29.98 "Hg

Humidity: 100%

Dew Point: 45 °F

Location of OlpeLocation

Past Weather in Olpe — Graph

°F

Olpe Temperature Yesterday

Maximum temperature yesterday: 50 °F (at 7:50 AM)
Minimum temperature yesterday: 48 °F (at 7:20 PM)
Average temperature yesterday: 50 °F

High & Low Weather Summary for the Past Weeks

 TemperatureHumidityPressure
High70 °F (May 22, 4:20 PM)100% (May 11, 7:50 AM)30.09 "Hg (May 11, 7:50 AM)
Low36 °F (May 15, 7:20 AM)40% (May 10, 4:20 PM)29.53 "Hg (May 12, 10:50 AM)
Average54 °F72%29.88 "Hg
* Reported May 9 7:20 PM — May 24 7:50 PM, Olpe, Weather by CustomWeather, © 2016

Note: Actual official high and low records may vary slightly from our data, if they occured in-between our weather recording intervals... More about our weather records

Advertising

Olpe Weather History for the Previous 24 Hours

Scroll right to see more
 ConditionsComfort  
Time TempWeatherWind HumidityBarometerVisibility
7:50 PM
Tue, May 24
46 °FLight rain. Broken clouds.8 mph100%29.98 "Hg2 mi
7:20 PM46 °FFog.9 mph100%29.98 "Hg2 mi
6:50 PM46 °FFog.10 mph100%29.98 "Hg3 mi
6:20 PM46 °FFog.9 mph100%29.95 "Hg2 mi
5:50 PM46 °FFog.14 mph100%29.98 "Hg2 mi
5:20 PM46 °FLight rain. Broken clouds.12 mph100%29.98 "Hg2 mi
4:50 PM45 °FLight rain. Broken clouds.12 mph100%29.98 "Hg2 mi
4:20 PM46 °FLight rain. Broken clouds.12 mph100%29.98 "Hg2 mi
3:50 PM45 °FLight rain. Broken clouds.14 mph100%29.98 "Hg2 mi
3:20 PM45 °FLight rain. More clouds than sun.13 mph100%29.98 "Hg1 mi
2:50 PM46 °FLight rain. Fog.13 mph100%29.98 "Hg2 mi
2:20 PM45 °FDrizzle. Fog.12 mph100%29.98 "Hg2 mi
1:50 PM45 °FDrizzle. Fog.13 mph100%29.98 "Hg2 mi
1:20 PM45 °FDrizzle. Fog.13 mph100%29.98 "Hg1 mi
12:50 PM45 °FDrizzle. Fog.13 mph100%29.98 "Hg1 mi
12:20 PM45 °FDrizzle. Fog.14 mph100%29.95 "Hg1 mi
11:50 AM45 °FDrizzle. Fog.13 mph100%29.95 "Hg1 mi
11:20 AM45 °FDrizzle. Fog.14 mph100%29.95 "Hg1 mi
10:50 AM45 °FDrizzle. Fog.13 mph100%29.95 "Hg1 mi
10:20 AM45 °FDrizzle. Fog.14 mph100%29.95 "Hg0 mi
9:50 AM45 °FDrizzle. Fog.14 mph100%29.95 "Hg0 mi
9:20 AM45 °FDrizzle. Fog.16 mph100%29.95 "Hg0 mi
8:50 AM45 °FFog.15 mph100%29.95 "Hg0 mi
8:20 AM45 °FDrizzle. Fog.14 mph100%29.95 "Hg1 mi
7:50 AM45 °FDrizzle. Fog.15 mph100%29.95 "Hg1 mi
Weather by CustomWeather, © 2016

See weather overviewHow to use our weather pages